Theta_e
294 289 287 291 293 295 294 292 292 296 300 299 299 300 303 306 307 307 309 310 312 314 317 319 322 325 327 332 333 337 332 334 332 336 337 338 338 339 339 341 343 343 343 342
290 287 291 293 293 292 292 291 291 294 298 297 299 298 302 303 304 306 307 308 310 312 314 318 321 324 327 329 331 334 331 332 335 337 340 341 341 338 337 341 344 345 343 341
288 291 293 290 290 289 291 290 291 291 295 297 295 294 298 302 304 305 307 308 309 310 311 316 317 322 325 327 330 332 332 331 337 341 342 342 341 335 335 338 338 340 342 342
289 293 290 290 288 290 286 292 292 292 291 287 296 287 296 299 300 303 305 306 307 309 311 313 316 319 323 324 326 326 330 333 337 342 341 341 338 335 338 339 342 341 344 343
289 290 289 288 288 291 288 293 291 291 290 290 290 287 292 298 297 300 302 304 307 310 310 310 312 315 317 321 321 326 334 336 338 341 342 340 341 340 341 341 341 343 344 343
292 297 293 291 292 292 293 291 291 291 289 283 288 287 289 293 297 300 303 305 306 308 309 310 312 314 315 318 324 334 338 339 339 340 342 343 341 338 338 340 340 340 340 340
291 291 295 295 289 291 290 288 281 279 280 280 289 287 290 297 299 300 301 305 307 308 309 311 313 313 316 325 332 335 339 338 340 341 340 341 341 341 341 341 338 337 336 337
284 281 289 294 291 287 288 287 282 276 278 281 288 284 290 299 301 303 304 306 307 309 311 311 312 313 320 329 332 336 339 338 339 339 338 339 341 339 338 339 337 336 336 337
283 283 293 294 294 292 288 284 290 284 286 283 286 289 295 297 298 301 302 306 311 314 315 316 323 326 329 330 331 339 339 338 338 338 337 338 338 338 336 338 338 337 339 337
289 282 290 290 294 294 291 292 284 285 278 277 284 286 289 295 296 301 303 306 310 317 320 320 326 326 329 332 338 340 339 337 337 337 337 336 337 337 336 337 337 337 337 336
292 287 286 290 288 286 288 287 288 288 286 281 282 286 297 297 299 299 302 304 309 318 319 323 324 327 331 335 336 336 336 335 335 335 335 335 334 335 336 336 336 336 336 335
292 288 282 285 291 293 290 288 289 284 282 285 284 285 298 299 300 301 302 303 306 320 320 322 325 327 332 334 334 335 335 334 334 334 334 334 335 335 335 334 335 334 333 334
292 286 280 282 288 291 287 289 290 290 289 285 282 285 298 299 299 302 302 304 308 320 320 322 324 330 332 333 332 332 333 332 333 333 333 333 333 334 334 334 333 333 334 334
295 288 284 280 283 287 285 287 289 289 284 285 286 288 293 296 297 300 302 305 310 319 320 322 324 328 331 332 331 330 331 332 332 332 332 332 332 333 333 333 333 334 334 333
292 285 287 287 288 288 287 286 287 286 288 284 288 289 293 296 299 301 303 306 305 310 321 322 323 327 330 330 330 330 330 331 332 330 331 331 332 333 333 332 332 333 333 332
292 285 287 285 288 288 285 287 288 288 289 288 289 289 297 299 301 300 302 304 304 312 322 322 323 328 329 329 329 329 330 330 331 330 330 331 331 331 331 331 331 331 331 332
289 286 285 280 286 285 281 286 287 289 291 290 286 292 297 297 299 301 305 308 310 316 323 326 326 329 330 329 330 329 330 331 330 330 331 331 331 330 329 331 331 332 330 330
287 286 285 281 283 274 286 295 294 293 294 296 294 295 297 298 301 307 309 309 314 319 324 328 330 330 331 331 330 331 330 330 330 330 331 331 331 330 329 330 331 330 331 329
290 287 282 280 280 284 286 290 289 287 290 297 296 296 298 300 304 306 310 314 320 324 327 330 331 331 331 330 331 329 328 329 330 330 331 331 331 330 329 329 331 333 331 329
290 289 284 282 277 276 288 292 295 291 285 299 299 299 301 303 296 304 317 320 322 325 329 330 331 331 331 331 330 328 327 328 329 331 332 331 330 330 329 330 332 333 334 331
286 285 281 281 280 284 290 291 293 283 289 295 300 304 304 300 304 313 314 318 324 325 328 331 331 330 330 330 330 327 327 327 330 332 332 330 331 331 331 331 332 333 331 330
284 283 284 284 281 280 293 290 285 290 294 294 298 304 305 306 309 311 313 318 323 324 327 330 329 330 331 330 329 327 328 330 332 332 331 330 332 329 330 331 331 328 329 327
285 288 285 284 285 293 294 289 293 296 296 299 301 305 307 308 309 312 317 321 323 325 327 330 329 329 329 330 330 327 330 331 331 332 330 331 331 331 331 330 330 325 327 326
292 294 288 287 292 292 295 294 298 300 300 303 307 309 308 309 313 315 318 321 323 326 326 329 329 328 327 329 330 330 330 330 331 332 331 331 330 329 331 330 330 330 328 325
293 292 290 289 292 295 295 299 299 301 304 306 308 309 310 311 314 318 319 321 323 324 326 328 328 328 327 329 329 330 330 330 331 332 331 331 330 330 331 330 329 330 331 325
295 291 288 288 295 295 295 300 301 301 303 305 305 307 308 310 314 319 320 322 322 322 324 325 326 328 328 328 328 329 329 330 331 330 330 330 330 331 329 327 324 296 302 300
Wind_Speed
2 9 16 17 16 21 18 11 20 18 7 15 26 30 24 21 24 24 22 20 20 21 19 17 15 15 15 13 12 11 8 5 5 5 7 8 10 8 8 8 12 14 12 12
6 15 13 12 14 15 19 19 14 11 12 8 14 22 16 16 21 21 21 22 22 22 21 19 17 15 15 14 13 11 8 7 8 8 6 4 7 6 6 8 10 12 12 12
17 16 7 9 16 19 18 21 21 14 12 15 13 24 24 22 21 22 23 22 22 22 22 19 19 16 14 13 13 10 8 7 9 10 8 7 8 5 6 7 7 9 12 13
14 17 14 13 14 15 20 11 12 16 14 14 6 13 15 14 17 20 20 19 21 22 20 21 19 18 16 16 11 9 8 7 10 14 11 14 7 8 6 8 8 8 11 11
18 15 14 16 16 15 13 18 14 8 10 11 20 13 19 13 20 18 15 18 21 23 21 21 21 19 19 14 11 8 6 7 10 13 12 10 8 6 7 8 11 10 9 10
22 17 18 17 12 10 14 14 21 18 14 17 18 11 23 18 23 20 18 20 17 15 15 18 18 15 15 9 7 5 7 9 12 11 11 11 12 10 10 10 9 8 7 7
15 19 20 18 18 11 8 11 9 12 12 20 9 14 24 7 5 3 9 12 16 15 16 14 13 12 10 7 6 6 9 10 11 11 10 10 12 12 14 14 10 10 8 6
7 9 8 7 23 18 12 15 9 15 13 16 13 14 10 8 16 11 7 9 12 15 12 13 12 9 7 6 7 9 11 12 11 11 11 11 13 10 10 9 9 7 6 6
6 3 4 15 5 15 15 10 18 8 2 8 12 17 17 17 19 11 12 10 14 16 15 12 5 4 6 7 10 12 14 13 13 12 11 12 11 12 11 11 9 8 7 7
2 8 4 4 4 4 8 4 11 8 6 8 10 17 9 1 6 6 11 14 18 19 17 6 2 5 6 9 11 12 13 14 14 14 12 11 11 11 12 11 11 9 8 8
6 4 5 5 5 6 9 6 5 10 11 5 2 3 2 11 11 10 13 15 19 18 11 2 4 8 10 12 13 13 14 15 14 14 13 13 12 13 12 11 10 9 9 9
4 5 6 11 7 9 3 6 9 8 19 11 10 5 2 8 11 14 17 20 19 12 8 2 5 9 12 13 13 14 14 15 13 13 14 13 12 11 10 10 10 10 10 8
6 2 7 6 6 5 1 3 5 7 6 14 14 8 8 9 19 17 21 21 18 12 4 2 5 9 12 13 13 14 14 15 14 14 14 12 11 10 10 10 10 10 9 8
12 6 9 10 9 7 9 11 12 8 10 13 19 22 28 21 21 22 22 20 17 11 3 3 5 9 11 13 14 15 14 14 13 13 13 12 10 10 9 9 9 9 8 7
4 10 13 15 16 16 18 19 18 17 16 18 15 21 24 19 19 20 20 19 20 17 5 6 6 9 12 13 14 15 14 14 13 13 12 11 10 9 9 9 8 8 7 6
6 4 4 11 14 16 22 21 22 24 22 20 23 27 21 21 23 22 21 22 20 16 7 10 9 11 12 14 14 14 14 13 12 12 12 11 10 9 9 8 9 8 6 6
5 5 7 14 8 10 14 24 26 22 21 18 23 21 22 21 21 19 19 18 19 16 9 13 12 12 13 14 14 13 12 11 11 11 10 10 9 9 9 9 8 8 8 8
6 5 3 7 6 9 3 1 6 14 17 18 22 19 22 22 18 18 21 21 20 14 10 14 13 13 14 14 13 13 12 11 11 10 10 9 9 10 9 8 7 7 8 7
14 8 3 4 7 13 16 2 2 7 12 11 17 24 20 17 16 23 22 19 15 12 10 13 14 15 14 14 13 13 12 11 10 9 9 10 9 10 10 8 8 6 10 7
6 11 7 5 6 6 5 2 6 7 9 3 15 16 12 6 8 13 10 7 9 8 10 13 15 16 16 14 14 13 12 11 10 8 8 10 10 10 10 8 8 6 6 8
2 2 11 11 6 7 3 12 10 6 3 15 13 6 8 8 11 13 17 15 8 6 11 14 16 16 17 15 14 13 12 11 9 7 10 10 9 8 8 8 6 7 8 7
3 4 2 4 6 5 6 8 3 8 14 16 16 12 11 12 15 17 19 14 9 8 13 16 15 15 15 15 14 14 12 10 8 9 10 10 9 7 7 8 6 5 6 6
3 3 3 3 3 9 8 10 14 16 15 18 13 14 12 14 13 15 14 11 8 6 11 14 14 15 14 15 14 14 11 10 9 10 11 10 9 7 7 8 8 6 5 6
5 3 4 4 7 13 10 10 13 15 17 15 13 13 11 12 12 11 10 7 5 7 13 14 15 15 15 14 14 13 11 11 11 11 10 9 9 8 6 5 5 6 6 5
4 8 5 6 10 15 5 11 12 14 12 10 10 7 7 3 4 7 6 2 5 5 9 11 14 15 16 15 14 12 12 12 10 9 9 9 7 7 7 4 2 4 5 5
3 4 3 4 12 9 9 10 15 16 13 11 11 14 13 8 5 8 7 7 8 6 6 8 7 10 14 14 14 13 13 12 11 9 8 7 7 7 6 6 6 11 8 3
Wind_Direction
183 245 230 233 237 255 263 304 260 251 207 234 226 246 245 249 255 262 262 263 264 267 272 269 267 268 262 256 248 242 259 254 198 193 195 214 210 193 200 198 186 194 202 193
207 248 260 259 251 248 244 250 253 280 265 256 250 260 257 258 260 265 268 268 267 272 271 268 266 265 263 266 265 267 259 251 210 206 198 190 173 190 177 187 192 195 190 181
262 255 256 259 247 244 239 240 242 249 280 277 270 271 262 254 255 260 258 262 266 264 270 269 266 261 262 259 257 262 262 242 214 197 169 130 129 128 174 184 183 186 177 172
258 259 237 246 239 242 245 229 237 237 237 251 211 275 265 257 256 254 259 257 260 264 260 258 263 260 253 260 269 256 257 215 197 180 184 173 171 161 183 179 174 164 169 167
262 287 256 244 240 224 252 230 239 248 248 264 251 271 266 248 257 255 268 261 257 255 264 265 262 262 262 265 265 267 230 192 181 183 184 174 172 144 149 155 146 146 148 156
265 274 253 242 240 244 229 218 216 228 239 246 240 243 276 256 261 260 256 255 265 278 278 264 260 265 264 266 253 215 180 169 171 173 180 179 152 148 146 141 139 143 136 138
295 282 241 232 233 227 231 200 188 203 208 235 216 212 245 340 99 320 296 292 289 290 287 276 273 269 262 239 202 183 169 154 152 161 164 154 144 147 140 144 146 143 143 161
318 337 330 213 224 228 222 219 222 214 202 232 204 221 243 248 269 268 291 302 294 296 299 288 277 258 235 193 167 176 153 139 147 151 142 134 137 137 137 141 140 139 153 153
299 268 334 330 310 221 225 224 233 296 266 216 196 244 268 267 281 277 298 333 332 323 315 298 270 223 183 165 168 159 141 137 142 137 131 128 131 135 130 128 132 144 140 139
274 289 187 250 359 316 254 258 205 212 231 212 212 234 247 128 234 42 20 2 345 336 326 277 168 145 150 151 141 137 135 135 134 130 127 127 124 121 123 130 134 138 133 134
294 248 293 289 220 167 269 219 243 255 240 287 271 151 161 110 69 20 8 354 347 343 341 352 145 146 138 136 132 129 129 129 128 127 124 122 122 123 127 128 132 132 132 141
328 298 289 288 291 278 257 296 241 247 225 238 286 272 107 104 28 4 350 341 341 347 340 11 147 147 139 131 131 132 132 128 128 125 121 117 118 120 123 129 131 136 135 139
352 286 306 312 160 87 310 262 280 295 272 254 243 244 167 284 328 339 334 340 342 347 343 86 154 154 139 135 136 130 130 123 126 125 119 119 120 126 130 132 130 137 138 145
320 253 254 270 307 322 291 285 286 269 260 251 239 262 268 289 307 320 327 328 333 344 317 170 164 155 146 141 138 133 130 129 131 129 127 125 129 132 135 132 136 149 148 148
271 267 249 254 268 275 276 279 278 260 259 251 262 255 268 286 299 311 315 310 317 328 244 192 173 162 149 145 142 138 136 138 140 135 131 130 134 140 138 140 144 143 146 153
201 260 266 253 258 263 273 274 262 255 255 255 254 258 272 285 287 290 301 300 306 318 230 194 176 170 156 151 149 144 143 143 143 141 138 138 142 142 141 145 149 151 155 144
233 234 248 265 274 288 271 249 246 253 253 252 240 250 259 264 272 280 286 292 298 300 228 192 173 171 162 155 150 153 149 148 150 149 142 145 149 150 151 144 150 161 137 136
217 210 227 273 297 251 275 298 267 271 271 256 243 240 247 252 267 284 282 282 287 283 214 187 172 166 162 156 157 149 153 158 157 152 150 153 159 155 157 153 142 133 132 148
218 210 241 241 229 287 284 56 61 308 284 289 231 230 242 253 287 282 270 266 264 270 207 186 168 163 158 160 156 156 160 164 167 161 162 162 161 157 156 148 138 139 134 142
219 227 226 212 250 269 25 154 330 322 264 240 224 225 229 237 258 265 332 278 260 241 190 174 164 158 157 159 161 161 164 173 180 169 162 159 155 159 157 151 142 137 136 124
333 210 230 235 260 270 42 326 308 224 33 327 303 277 260 235 238 296 310 303 276 228 184 168 163 164 157 156 160 166 171 185 177 158 155 150 153 153 155 153 152 146 142 131
295 305 262 213 236 255 5 319 266 321 300 294 288 285 272 264 269 274 280 281 259 192 189 169 167 160 154 159 164 167 180 182 168 160 155 145 145 150 156 160 150 125 128 135
290 230 289 252 290 271 306 229 271 278 278 291 286 288 273 265 268 267 256 246 249 207 184 171 167 150 157 165 173 173 180 170 166 162 150 145 148 153 160 163 149 129 148 156
282 334 265 293 242 273 300 278 270 281 280 271 263 257 254 255 252 244 236 240 241 186 179 173 163 154 160 172 174 182 164 169 168 158 151 147 150 155 163 163 160 152 159 171
288 305 276 248 279 307 182 332 323 326 344 15 12 17 2 303 230 197 170 115 77 117 165 172 167 165 168 175 173 171 168 166 170 157 153 154 147 164 153 118 117 153 153 168
306 314 309 294 308 316 319 347 339 339 348 20 15 23 10 6 148 130 100 66 56 62 130 145 158 173 168 177 174 171 167 170 162 158 158 163 158 159 147 146 132 46 55 125